Location: Butler
(32.5575°N, 84.2380°W)
Time: 05:00:31
(UTC+00:00)

N. Korean satellite - Pass Details

Date: 06 December 2021
Orbit: 447 x 491 km, 97.3° (Epoch: 22 January)

Event Time Altitude Azimuth Distance (km) Brightness Sun altitude
Rises 10:11:09 0° 26° (NNE) 2,450 10.3 -27.6°
Reaches altitude 10° 10:13:26 10° 40° (NE) 1,574 9.5 -27.1°
Maximum altitude 10:16:15 24° 97° (E) 958 8.7 -26.5°
Drops below altitude 10° 10:19:03 10° 154° (SSE) 1,570 9.6 -25.9°
Sets 10:21:20 0° 168° (SSE) 2,442 10.4 -25.5°
